Stanley, ID

10:50 AM MST on February 12, 2016 (GMT -0700)
Stanley

Weather History for KSNT - February, 2013

Change the Weather History Date:

Saturday, February 23, 2013

  Actual Average Record
Temperature  
Mean Temperature 16 °F 21 °F  
Max Temperature 26 °F 36 °F 52 °F (1921)
Min Temperature 5 °F 6 °F -29 °F (1975)
Degree Days  
Heating Degree Days 49 44  
Month to date heating degree days 1060 1089  
Since 1 July heating degree days 6830 7318  
Cooling Degree Days 0 0  
Month to date cooling degree days 0 0  
Year to date cooling degree days 0 0  
Moisture  
Dew Point 11 °F    
Average Humidity 69    
Maximum Humidity 92    
Minimum Humidity 46    
Precipitation  
Precipitation 0.19 in 0.06 in 0.35 in (2000)
Month to date precipitation 0.52 1.46  
Year to date precipitation 1.13 2.98  
Sea Level Pressure  
Sea Level Pressure 29.83 in    
Wind  
Wind Speed 8 mph (NNW)    
Max Wind Speed 17 mph    
Max Gust Speed 25 mph    
T = Trace of Precipitation, MM = Missing Value Source: NWS Daily Summary

Daily Weather History Graph

Daily Weather History Graph

Search for Another Location

Airport or City:

Trip Planner

Search our weather history database for the weather conditions in past years. The results will help you decide how hot, cold, wet, or windy it might be!

Date:

Astronomy

Feb. 23, 2013 Rise Set
Actual Time 7:26 AM MST 6:20 PM MST
Civil Twilight 6:56 AM MST 6:49 PM MST
Nautical Twilight 6:23 AM MST 7:23 PM MST
Astronomical Twilight 5:49 AM MST 7:56 PM MST
Moon 4:32 PM MST (2/23) 5:54 AM MST (2/23)
Length of Visible Light 11h 52m
Length of Day
10h 54m
Waxing Gibbous, 95% of the Moon is Illuminated
Feb 23
Waxing Gibbous
Feb 25
Full
Mar 4
Last Quarter
Mar 11
New
Mar 19
First Quarter

Hourly Weather History & Observations

Time (MST) Temp. Windchill Dew Point Humidity Pressure Visibility Wind Dir Wind Speed Gust Speed Precip Events Conditions
12:51 AM 26.1 °F 15.0 °F 21.9 °F 84% 29.68 in - SSE 12.7 mph 18.4 mph 0.01 in   Unknown
1:51 AM 26.1 °F 15.0 °F 21.9 °F 84% 29.64 in - SSE 12.7 mph 19.6 mph 0.01 in   Unknown
2:51 AM 26.1 °F 15.6 °F 21.9 °F 84% 29.57 in - SSE 11.5 mph 20.7 mph 0.03 in   Unknown
3:51 AM 25.0 °F 18.1 °F 23.0 °F 92% 29.55 in - ESE 5.8 mph - 0.06 in   Unknown
4:51 AM 23.0 °F 12.4 °F 19.9 °F 88% 29.62 in - NNW 10.4 mph 20.7 mph 0.04 in   Unknown
5:51 AM 21.9 °F 12.5 °F 14.0 °F 72% 29.65 in - NNW 8.1 mph 16.1 mph 0.01 in   Unknown
6:51 AM 19.0 °F 6.8 °F 15.1 °F 85% 29.72 in - NW 11.5 mph 19.6 mph N/A   Unknown
7:51 AM 17.1 °F 11.7 °F 12.9 °F 84% 29.75 in - NW 3.5 mph - 0.03 in   Unknown
8:51 AM 18.0 °F 6.9 °F 7.0 °F 62% 29.78 in - NW 9.2 mph - N/A   Unknown
9:51 AM 17.1 °F 7.6 °F 6.1 °F 62% 29.81 in - North 6.9 mph - N/A   Unknown
10:51 AM 21.0 °F 9.3 °F 5.0 °F 50% 29.81 in - NNW 11.5 mph 21.9 mph N/A   Unknown
11:51 AM 19.9 °F 10.1 °F 6.1 °F 55% 29.83 in - NNW 8.1 mph 16.1 mph N/A   Unknown
12:51 PM 21.0 °F 10.6 °F 7.0 °F 55% 29.82 in - NNW 9.2 mph 23.0 mph N/A   Unknown
1:51 PM 24.1 °F 12.5 °F 6.1 °F 46% 29.81 in - NNW 12.7 mph 21.9 mph N/A   Unknown
2:51 PM 21.0 °F 9.9 °F 8.1 °F 57% 29.83 in - North 10.4 mph 21.9 mph N/A   Unknown
3:51 PM 24.1 °F 14.4 °F 7.0 °F 48% 29.84 in - NNW 9.2 mph 21.9 mph N/A   Unknown
4:51 PM 21.0 °F 11.4 °F 10.0 °F 63% 29.90 in - NNW 8.1 mph - N/A   Unknown
5:51 PM 18.0 °F 9.8 °F 10.9 °F 74% 29.95 in - NNW 5.8 mph - N/A   Unknown
6:51 PM 18.0 °F 11.1 °F 10.9 °F 74% 29.99 in - NW 4.6 mph - N/A   Unknown
7:51 PM 17.1 °F - 10.0 °F 74% 30.03 in - Calm Calm - N/A   Unknown
8:51 PM 15.1 °F - 7.0 °F 70% 30.06 in - Calm Calm - N/A   Unknown
9:51 PM 14.0 °F 5.1 °F 8.1 °F 77% 30.09 in - West 5.8 mph - N/A   Unknown
10:51 PM 5.0 °F -2.1 °F 1.9 °F 87% 30.14 in - South 3.5 mph - N/A   Unknown
11:51 PM 12.9 °F - 8.1 °F 81% 30.12 in - Calm Calm - N/A   Unknown